Powrót do katalogu

KESTREL-0A

AktywnyMilitariaSSO
NORAD 64624·PAYLOAD·🇺🇸 United States

Wystrzelony Jun 26, 2025 z Rocket Lab Launch Complex 1

Loading…

Następne Przeloty (najbliższe 24 godziny)

TLE

ŚwieżeSource: Space-Track

Epoka: Sep 14, 2026, 11:26 UTC

1 64624U 25138D   26257.47660282  .00006900  00000-0  28407-3 0  9997
2 64624  97.4455 260.9579 0013264 163.7978 196.3686 15.24364083 67540

Śledź KESTREL-0A w czasie rzeczywistym z AllMySat

Download on the App Store